Cloud_Cover
94 83 22 100 100 100 60 59 1 0 0 0 4 11 84 100 100 100 100 100 88 12 100 97 100 84 100 100 100 100 100 100 100 100 100 100 100 97 82 0 0 0 0 0
100 100 93 91 100 100 100 84 3 0 0 0 0 0 9 59 47 99 100 100 100 100 100 100 50 100 100 100 100 100 100 100 100 100 100 100 100 100 56 5 9 8 0 0
100 100 100 100 100 100 100 100 21 0 0 0 0 0 1 2 79 100 100 100 100 93 89 100 98 98 100 100 100 100 100 100 100 100 100 100 100 100 100 92 10 5 1 0
100 100 94 100 100 100 100 100 100 16 0 0 0 0 0 0 100 100 100 100 99 92 32 31 100 100 100 100 100 100 100 100 100 100 100 100 100 100 94 100 61 5 5 0
100 100 99 100 100 97 100 98 64 99 7 5 0 0 36 0 48 100 100 100 98 100 57 36 13 8 60 100 100 100 100 100 100 100 100 100 100 97 100 97 74 5 19 49
100 100 90 100 100 100 97 100 99 75 90 88 2 4 91 22 1 100 100 100 100 100 91 75 24 36 99 98 100 100 100 100 100 100 100 100 100 100 100 100 41 66 19 4
100 100 100 100 100 100 100 38 100 100 100 100 100 99 29 1 6 80 100 100 10 38 100 99 5 74 100 96 26 58 100 100 100 100 100 100 100 100 100 90 9 77 97 5
100 100 100 100 100 100 100 100 100 100 100 21 15 73 100 100 61 98 100 100 100 32 6 43 56 82 100 100 51 95 100 100 96 100 100 100 100 100 100 100 74 11 33 22
100 100 100 100 100 100 100 100 100 100 93 100 98 42 3 5 41 100 70 25 37 35 71 92 99 94 53 48 42 92 100 100 100 99 55 98 100 100 100 86 36 4 1 0
100 96 94 100 100 100 100 100 100 100 96 5 7 78 6 6 5 71 99 100 10 0 3 9 37 100 100 100 100 85 100 100 100 100 100 100 52 46 16 64 99 26 69 36
92 48 93 100 100 100 100 100 73 22 51 5 4 3 5 17 49 25 9 46 38 5 4 2 0 86 96 100 100 96 100 100 100 99 73 98 59 65 88 89 75 71 18 19
23 100 100 100 40 6 62 100 100 95 46 6 4 2 2 14 5 13 11 16 36 25 3 2 0 0 30 24 100 100 100 89 91 64 40 37 28 14 100 95 100 100 100 76
100 100 48 17 90 58 72 51 7 7 8 8 4 0 37 0 0 0 0 4 0 6 2 23 0 0 0 0 95 95 84 77 100 99 50 64 70 88 65 100 100 100 100 100
100 12 64 49 19 5 5 5 4 0 0 0 0 0 0 0 15 30 45 8 26 21 3 0 0 0 0 2 92 100 100 100 95 100 84 78 44 80 35 13 21 48 100 100
6 5 5 5 5 5 4 2 0 0 0 0 0 0 16 2 0 0 12 98 59 4 3 5 5 3 1 56 100 100 100 86 100 98 96 100 100 98 100 100 87 93 100 99
50 8 5 4 0 0 0 0 0 0 0 0 0 13 96 19 6 23 64 32 86 91 11 12 5 1 0 7 100 100 100 100 99 100 100 100 100 100 99 99 99 100 100 100
5 5 5 0 0 1 0 0 0 0 0 0 0 92 8 88 98 100 71 91 100 99 97 26 10 5 0 0 56 100 100 100 100 100 100 100 100 100 100 100 100 100 100 100
20 5 5 5 5 5 3 0 0 0 0 0 4 97 100 90 99 88 100 100 100 100 14 8 47 25 7 3 16 99 100 100 100 100 100 94 100 100 100 100 100 100 100 100
70 5 28 5 5 5 0 0 0 0 0 0 4 88 100 100 100 75 98 100 87 88 55 86 84 99 99 75 7 94 100 100 100 100 100 100 100 100 100 100 100 100 100 100
100 100 100 5 5 5 2 1 1 4 0 4 5 25 78 100 100 100 100 98 99 100 100 100 100 94 100 100 59 8 98 100 100 100 100 100 100 100 100 100 100 100 100 100
100 100 94 21 39 99 100 10 5 5 5 5 6 53 83 100 100 100 99 100 100 99 100 100 100 100 100 100 100 31 51 100 100 100 100 100 100 100 100 100 100 100 100 100
100 100 97 99 100 97 100 63 5 5 6 7 92 90 96 100 100 100 100 100 100 100 100 100 100 100 100 100 100 99 93 100 100 100 100 100 100 100 100 100 100 100 100 100
100 100 100 100 100 100 100 85 37 45 99 64 77 69 100 100 100 100 100 100 100 100 100 100 100 100 100 100 100 100 100 100 100 100 100 100 100 100 100 100 100 100 100 100
100 100 100 100 100 100 100 90 100 100 77 5 100 100 100 98 84 100 100 100 100 100 100 100 100 100 100 100 100 99 100 100 100 100 100 97 80 100 100 100 100 100 100 100
100 100 100 100 100 100 53 76 100 100 100 78 70 80 45 100 100 99 100 100 100 100 100 100 100 100 100 100 100 100 100 100 100 100 100 100 100 100 100 100 100 100 100 100
100 100 100 100 100 78 57 82 97 100 100 82 99 100 100 100 100 100 100 100 100 100 100 100 100 100 100 100 100 100 100 100 100 100 100 100 100 100 100 100 100 100 100 100
96 99 98 49 12 88 94 98 87 99 100 100 100 94 60 100 100 75 100 100 100 100 100 100 100 100 100 100 100 100 100 100 100 100 100 100 100 100 100 100 100 100 100 100